User: anonymous   Login
Location: Columbia
(38.9520°N, 92.3340°W)
Time: 06:39:42
(UTC-06:00)
Language:

Iridium 52 - Orbit

View from above orbital plane
View from above orbital plane
View from above satellite
View from above satellite

Ground track
Ground track

The orbit data is extracted from the following two-line orbital elements,

1 25169U 98010A   15061.24205465  .00000304  00000-0  10163-3 0  9993
2 25169 086.4007 340.6208 0002130 081.7611 071.7477 14.34211749891673
Epoch (UTC): 02 March 2015 05:48:33
Eccentricity: 0.0002130
inclination: 86.4007°
perigee height: 776 km
apogee height: 779 km
right ascension of ascending node: 340.6208°
argument of perigee: 81.7611°
revolutions per day: 14.34211749
mean anomaly at epoch: 71.7477°
orbit number at epoch: 89167

The dashed part of the orbit path shows where the satellite is in the earth's shadow,  

DLR